Location: Newark
(49.8348°N, 24.0280°E)
Time: 14:19:46
(UTC+00:00)

Transit 2A - Pass Details

Date: 22 January 2020
Orbit: 600 x 959 km, 66.7° (Epoch: 22 February)

Event Time Altitude Azimuth Distance (km) Brightness Sun altitude
Rises 17:52:30 0° 168° (SSE) 2,900 - -27.2°
Reaches altitude 10° 17:55:34 10° 146° (SE) 1,964 - -27.7°
Maximum altitude 17:58:09 16° 109° (ESE) 1,614 - -28.2°
Drops below altitude 10° 18:00:44 10° 72° (ENE) 1,947 - -28.6°
Sets 18:03:44 0° 50° (NE) 2,861 - -29.0°
